Weather History for Cairns, QU

Change the Weather History Date:

Monday, January 28, 2013

  Actual Average Record
Temperature  
Mean Temperature 88 °F -  
Max Temperature 98 °F 88 °F 98 °F (2013)
Min Temperature 77 °F 74 °F 69 °F (2003)
Cooling Degree Days 22    
Growing Degree Days 38 (Base 50)    
Moisture  
Dew Point 72 °F    
Average Humidity 65    
Maximum Humidity 89    
Minimum Humidity 36    
Precipitation  
Precipitation 0.31 in 0.55 in - ()
Sea Level Pressure  
Sea Level Pressure 29.59 in    
Wind  
Wind Speed 10 mph ()    
Max Wind Speed 18 mph    
Max Gust Speed 26 mph    
Visibility 6.4 miles    
Events Rain , Thunderstorm    
Averages and records for this station are not official NWS values.
T = Trace of Precipitation, MM = Missing Value Source: Averaged Metar Reports

Daily Weather History Graph

Daily Weather History Graph

Search for Another Location

Airport:

Trip Planner

Search our weather history database for the weather conditions in past years. The results will help you decide how hot, cold, wet, or windy it might be!

Date:

Astronomy

Jan. 28, 2013 Rise Set
Actual Time 6:03 AM EST 6:56 PM EST
Civil Twilight 5:40 AM EST 7:19 PM EST
Nautical Twilight 5:13 AM EST 7:46 PM EST
Astronomical Twilight 4:45 AM EST 8:14 PM EST
Moon 7:30 PM EST (1/28) 6:40 AM EST (1/28)
Length of Visible Light 13h 39m
Length of Day
12h 53m
Full, 99% of the Moon is Illuminated
Jan 28
Full
Feb 3
Last Quarter
Feb 10
New
Feb 18
First Quarter
Feb 26
Full

Hourly Weather History & Observations

Time (EST) Temp. Heat Index Dew Point Humidity Pressure Visibility Wind Dir Wind Speed Gust Speed Precip Events Conditions
8:00 AM 89.6 °F 99.8 °F 75.2 °F 62% 29.59 in 6.2 mi NE 4.6 mph - N/A   Scattered Clouds
9:00 AM 91.4 °F 105.1 °F 77.0 °F 63% 29.59 in 6.2 mi East 5.8 mph - N/A   Scattered Clouds
10:00 AM 92 °F - 75 °F 49% 29.61 in - West 16.1 mph - -  
10:00 AM 91.4 °F 102.5 °F 75.2 °F 59% 29.59 in 6.2 mi West 16.1 mph - N/A   Scattered Clouds
10:30 AM 93.2 °F 105.0 °F 75.2 °F 56% 29.59 in 6.2 mi West 13.8 mph - N/A   Scattered Clouds
11:00 AM 95.0 °F 107.4 °F 75.2 °F 53% 29.59 in 6.2 mi WNW 13.8 mph - N/A   Scattered Clouds
12:00 PM 96.8 °F 109.6 °F 75.2 °F 50% 29.56 in 6.2 mi WNW 9.2 mph - N/A   Scattered Clouds
1:00 PM 98 °F - 73 °F 36% 29.57 in - West 10.4 mph - -  
1:00 PM 98.6 °F 109.2 °F 73.4 °F 44% 29.56 in 6.2 mi West 10.4 mph - N/A   Scattered Clouds
1:36 PM 93.2 °F 98.8 °F 69.8 °F 46% 29.56 in 6.2 mi SW 18.4 mph 26.5 mph N/A Rain , Thunderstorm Thunderstorms and Rain
2:00 PM 89.6 °F 98.2 °F 73.4 °F 59% 29.56 in 6.2 mi South 18.4 mph - N/A Thunderstorm Mostly Cloudy
2:30 PM 89.6 °F 96.2 °F 71.6 °F 55% 29.56 in 6.2 mi South 10.4 mph - N/A   Mostly Cloudy
4:00 PM 88 °F - 72 °F 51% 29.56 in - SSE 12.7 mph - -  
4:00 PM 87.8 °F 95.6 °F 73.4 °F 62% 29.53 in 6.2 mi SSE 12.7 mph - N/A Thunderstorm Mostly Cloudy
4:30 PM 86.0 °F 91.8 °F 71.6 °F 62% 29.56 in 6.2 mi South 13.8 mph - N/A Rain , Thunderstorm Light Rain Showers
4:54 PM 84.2 °F 89.6 °F 71.6 °F 66% 29.56 in 3.7 mi SSE 15.0 mph - N/A Rain Rain Showers
5:00 PM 80.6 °F 84.6 °F 71.6 °F 74% 29.56 in 2.5 mi SSE 17.3 mph - N/A Rain , Thunderstorm Light Thunderstorms and Rain
5:05 PM 80.6 °F 85.4 °F 73.4 °F 79% 29.56 in 5.0 mi ESE 12.7 mph - N/A Rain , Thunderstorm Thunderstorms and Rain
5:30 PM 78.8 °F - 75.2 °F 89% 29.53 in 6.2 mi SSE 3.5 mph - N/A Thunderstorm Mostly Cloudy
5:52 PM 78.8 °F - 73.4 °F 83% 29.56 in 6.2 mi WNW 15.0 mph - N/A   Mostly Cloudy
6:00 PM 80 °F - 72 °F 70% 29.57 in 19 mi WSW 10.4 mph - -   Mostly Cloudy
6:00 PM 78.8 °F - 71.6 °F 78% 29.56 in 6.2 mi WSW 10.4 mph - N/A   Mostly Cloudy
6:30 PM 82.4 °F 87.2 °F 71.6 °F 70% 29.56 in 6.2 mi West 10.4 mph - N/A   Mostly Cloudy
7:00 PM 80 °F - 71 °F 69% 29.60 in - West 10.4 mph - -  
7:00 PM 80.6 °F 84.6 °F 71.6 °F 74% 29.59 in 6.2 mi West 10.4 mph - N/A   Mostly Cloudy
7:30 PM 80.6 °F 84.6 °F 71.6 °F 74% 29.59 in 6.2 mi West 10.4 mph - N/A   Mostly Cloudy
8:00 PM 80.6 °F 84.6 °F 71.6 °F 74% 29.59 in 6.2 mi SW 5.8 mph - N/A   Mostly Cloudy
8:30 PM 80.6 °F 84.6 °F 71.6 °F 74% 29.62 in 6.2 mi West 8.1 mph - N/A   Mostly Cloudy
9:00 PM 82 °F - 72 °F 65% 29.65 in 12 mi South 12.7 mph - -   Mostly Cloudy
9:00 PM 82.4 °F 87.2 °F 71.6 °F 70% 29.65 in 6.2 mi South 12.7 mph - N/A   Mostly Cloudy
9:30 PM 86.0 °F 89.4 °F 68.0 °F 55% 29.68 in 6.2 mi SW 10.4 mph - N/A Rain , Thunderstorm Light Rain Showers
10:00 PM 80 °F - 68 °F 60% 29.68 in - WSW 15.0 mph - -  
10:00 PM 80.6 °F 83.2 °F 68.0 °F 65% 29.65 in 3.7 mi WSW 15.0 mph - N/A Rain Light Rain Showers
10:30 PM 78.8 °F - 71.6 °F 78% 29.65 in 6.2 mi West 11.5 mph - N/A   Scattered Clouds
11:00 PM 77.0 °F - 71.6 °F 83% 29.65 in 5.0 mi West 5.8 mph - N/A Rain Light Rain Showers
11:30 PM 77.0 °F - 71.6 °F 83% 29.65 in 5.0 mi West 10.4 mph - N/A Rain Light Rain Showers